OBJECT AD, 59125

Orbit data source: Space-Track

You're viewing an Uncataloged Satellite

Recently launched and/or uncataloged satellites may have evolving metadata. Metadata may include but not limited to: Owner, Maufacturer, Bus, Motor, and Mission.

OBJECT AD, 59125 is a satellite in SSO that was launched on Mon, 04 Mar 2024 UTC via an FALCON 9 launch vehicle from the Air Force Western Test Range (AFWTR). Unknown objects in Earth's orbit typically refer to objects detected orbiting the Earth but have not yet been identified or cataloged. These objects could be anything from previously untracked satellites, spent rocket stages, debris from satellite collisions, or even natural meteoroids temporarily captured by Earth's gravity.

Loading next visibility...
Identifier
59125, 2024-043AD
Orbit
SSO
Country
Flag of TBDTBD
Related business
None
Manufacturer
Space Machines
Mission
Operational Commercial Technology
Bus & Motor
OPTIMUS, Unknown motor
Mass
270 kg wet, 270 kg dry
Launch date (UTC)
2024-03-04 (1 year ago)
Launch vehicle
FALCON 9
Launch site
Air Force Western Test Range (AFWTR)
Object type
Unknown
Shape & HBR
Cyl + 1 Pan, 0.8 m
Radar Cross Section
2.062 m², Medium (>0.1 m² and < 1m²)

Expand to show TLE details & history
Last TLE update: 13 hours ago

TLE from 13 hours ago
0 OBJECT AD
1 59125U 24043AD  25241.91316339  .00012392  00000-0  44294-3 0  9997
2 59125  97.5271  12.1723 0010713 181.3864 178.7348 15.28912689 82643
Epoch: 2025-08-29T21:54Z
TLE epoch observation values (Epoch: 2025-08-29T21:54:57.316Z)
Latitude
-0.00003°
Longitude
65.07849°
Altitude
489.506 km
Speed
7.616 km/s
True Right ascension
00h 48m 41s
True Declination
0° 00' 00"
Sunlit
Object was in full shadow at epoch
Visualization orbit readout
Latitude
Unknown
Longitude
Unknown
Altitude
Unknown
Speed
Unknown
Apparent Right ascension
Unknown
Apparent Declination
Unknown
Sunlit
N/A
Visualization observer readout
Local Sidereal Time
02:56:20
Azimuth
Unknown
Elevation
Unknown
Doppler factor
Unknown
Orbital elements
Apogee altitude
483.363 km
Perigee altitude
468.678 km
Semi-major axis
6,854.158 km
Eccentricity
0.00107
Inclination
97.5271°
RAAN
12.1723°
Arg. of periapsis
181.3864°
True anomaly
178.73751°
Mean anomaly
178.7348°
Eccentric anomaly
178.73615°
Mean motion
3.82483 °/min
Orbital period
94.12 mins
BSTAR
0.00044294
Loading maneuver chart data...
Computing Atmospheric mass density...
Loading historical data...
Loading historical data...
Loading historical data...
Loading historical data...
Loading historical data...
Loading historical data...
Loading historical data...

Documentation

Showing up to 5 results
|